Regional Weather Roundup
Issued by NWS

Home | Current Version | Previous Version | Text Only | Print | Product List | Glossary On
Versions: 1 2 3 4 5 6 7 8 9 10 11 12 13 14 15 16 17 18 19 20 21 22 23 24 25 26 27 28 29 30 31 32 33 34 35 36 37 38 39 40 41 42 43 44 45 46 47 48 49 50
000
ASCA42 TJSJ 202111
RWRPR
PUERTO RICO/U.S. VIRGIN ISLANDS HOURLY WEATHER ROUNDUP
NATIONAL WEATHER SERVICE SAN JUAN PR
500 PM AST THU NOV 20 2014

PRZ001-004-202200-
PUERTO RICO

CITY           SKY/WX    TMP DP  RH WIND       PRES   REMARKS
SAN JUAN LMM   PTCLDY    84  73  70 E10       29.95R HX  91
PONCE          PTCLDY    88  72  58 SE9       29.90S HX  94
MAYAGUEZ       PTSUNNY   81  73  78 SE6       29.96S
AGUADILLA      PTSUNNY   81  73  78 E7        29.96R
CEIBA          MOCLDY    82  72  69 E12       29.98R
$$

PRZ006-007-202200-
U.S. VIRGIN ISLANDS

CITY           SKY/WX    TMP DP  RH WIND       PRES   REMARKS
$$

HOURLY WEATHER ROUNDUP FOR THE NEWS MEDIA

CITY           SKY/WX    TMP DP  RH WIND       PRES   REMARKS
MIAMI          PTSUNNY   75  62  64 NE14G24   30.09S
ORLANDO        CLOUDY    64  46  52 NE9       30.19F
NEW YORK       PTCLDY    46  24  42 W20G28    29.86S
NEWARK         PTCLDY    45  20  36 W22G32    29.86R
CHICAGO        MOSUNNY   26   1  34 W18G30    30.08R WCI  13
HARTFORD       CLEAR     46  24  42 SW13G20   29.77S
BOSTON         PTCLDY    45  18  34 W22G30    29.76R
DALLAS         MOSUNNY   71  48  43 S9        29.99F
PHILADELPHIA   MOCLDY    47  23  38 W14       29.89R


USA.gov is the U.S. government's official web portal to all federal, state and local government web resources and services.